Location: ?
(35.3544°N, 139.4507°E)
Time: 11:27:01
(UTC+00:00)

Cosmos 2315 Rocket - Pass Details

Date: 03 August 2024
Orbit: 965 x 1002 km, 82.9° (Epoch: 12 September)

Event Time Altitude Azimuth Distance (km) Brightness Sun altitude
Rises 19:20:20 0° 186° (S) 3,710 6.7 -6.9°
Reaches altitude 10° 19:22:51 10° 187° (S) 2,764 6.1 -6.5°
Maximum altitude 19:29:13 85° 276° (W) 1,008 4.1 -5.3°
Drops below altitude 10° 19:35:36 10° 5° (N) 2,768 6.8 -4.1°
Sets 19:38:08 0° 6° (N) 3,716 7.5 -3.7°
